This demonstration page uses our WeatherBlox Daily Observations layout. Learn more.

Left ArrowRight Arrow

34.16533, -84.80231

Hourly Observations for October 21, 2019

Temp ( °F °C ) Dew Point ( °F °C ) Humidity (%) Winds ( mph kmh ) Pressure ( in mb ) Visibility ( mi km ) Precip ( " mm )
12:28 am 00:28 Mostly Cloudy with Mist and Fog 56 13.3 54 12.2 93 93 Calm 30.03 1017 4 6 0.00 0.00
12:34 am 00:34 Mostly Cloudy with Mist and Fog 54 12.2 53 11.7 97 97 Calm 30.03 1017 2 3 0.00 0.00
12:53 am 00:53 Cloudy with Mist and Fog 55 12.8 53 11.7 93 93 Calm 29.96 1015 2 2 0.00 0.00
12:56 am 00:56 Cloudy with Mist and Fog 55 12.8 53 11.7 93 93 Calm 30.03 1017 3 5 0.00 0.00
1:14 am 01:14 Partly Cloudy 54 12.2 53 11.7 97 97 Calm 30.03 1017 10 16 0.00 0.00
1:53 am 01:53 Mostly Cloudy 55 12.8 53 11.7 93 93 Calm 29.95 1014 8 13 0.00 0.00
2:26 am 02:26 Cloudy with Mist and Fog 55 12.8 53 11.7 93 93 Calm 30.03 1017 3 4 0.00 0.00
2:34 am 02:34 Mostly Cloudy with Mist and Fog 55 12.8 53 11.7 93 93 Calm 30.03 1017 1 2 0.00 0.00
2:46 am 02:46 Cloudy with Mist and Fog 53 11.7 51 10.6 93 93 Calm 30.00 1016 3 5 0.00 0.00
2:53 am 02:53 Cloudy 53 11.7 51 10.6 93 93 Calm 29.96 1014 9 14 0.00 0.00
3:15 am 03:15 Cloudy with Mist and Fog 53 11.7 51 10.6 93 93 Calm 30.00 1016 2 3 0.00 0.00
3:41 am 03:41 Mostly Cloudy with Fog 54 12.2 52 11.1 93 93 Calm 30.00 1016 1 1 0.00 0.00
3:53 am 03:53 Mostly Cloudy with Fog 54 12.2 52 11.1 93 93 Calm 29.93 1014 1 1 0.00 0.00
4:19 am 04:19 Mostly Cloudy with Fog 52 11.1 51 10.6 97 97 Calm 29.97 1015 0 0 0.00 0.00
4:51 am 04:51 Mostly Cloudy with Fog 54 12 52 11 94 94 Calm 29.97 1015 1 1 0.00 0.00
4:53 am 04:53 Mostly Cloudy with Fog 53 11.7 51 10.6 93 93 Calm 29.93 1013 1 1 0.00 0.00
5:07 am 05:07 Mostly Cloudy with Fog 54 12.2 52 11.1 93 93 Calm 30.00 1016 0 0 0.00 0.00
5:19 am 05:19 Mostly Cloudy with Mist and Fog 53 11.7 52 11.1 96 96 Calm 30.00 1016 1 1 0.00 0.00
5:38 am 05:38 Cloudy with Mist and Fog 52 11.1 51 10.6 97 97 Calm 30.00 1016 2 3 0.00 0.00
5:53 am 05:53 Mostly Cloudy with Mist and Fog 53 11.7 51 10.6 93 93 Calm 29.93 1014 4 6 0.00 0.00
6:01 am 06:01 Partly Cloudy 53 11.7 52 11.1 96 96 Calm 30.00 1016 10 16 0.00 0.00
6:53 am 06:53 Clear 55 12.8 53 11.7 93 93 Calm 29.96 1015 10 16 0.00 0.00
7:53 am 07:53 Mostly Sunny 57 13.9 56 13.3 96 96 E 3 6 29.96 1015 10 16 0.00 0.00
8:53 am 08:53 Sunny 59 15 57 13.9 93 93 E 3 6 29.97 1015 10 16 0.00 0.00
9:53 am 09:53 Sunny 62 16.7 59 15 90 90 Calm 29.98 1015 10 16 0.00 0.00
10:53 am 10:53 Sunny 65 18.3 61 16.1 87 87 VRB 6 9 29.97 1015 10 16 0.00 0.00
11:06 am 11:06 Mostly Sunny 66 18.9 62 16.7 87 87 VRB 5 7 29.97 1015 10 16 0.00 0.00
11:53 am 11:53 Mostly Sunny 70 21.1 62 16.7 76 76 SE 9 15 29.96 1014 10 16 0.00 0.00
12:21 pm 12:21 Mostly Cloudy 72 22.2 63 17.2 73 73 S 8 13 30.00 1016 10 16 0.00 0.00
12:37 pm 12:37 Partly Cloudy 74 23.3 63 17.2 69 69 SE 9 15 30.00 1016 10 16 0.00 0.00
12:53 pm 12:53 Partly Cloudy 74 23.3 63 17.2 69 69 S 10 17 29.97 1015 10 16 0.00 0.00
1:53 pm 13:53 Partly Cloudy 76 24.4 63 17.2 64 64 S 8 13 29.95 1014 10 16 0.00 0.00
2:53 pm 14:53 Mostly Sunny 76 24.4 62 16.7 62 62 S 8 13 29.95 1014 10 16 0.00 0.00
3:53 pm 15:53 Partly Cloudy 76 24.4 63 17.2 64 64 VRB 5 7 29.93 1013 10 16 0.00 0.00
4:53 pm 16:53 Mostly Cloudy 74 23.3 64 17.8 71 71 SE 6 9 29.92 1013 10 16 0.00 0.00
6:53 pm 18:53 Partly Cloudy 72 22.2 64 17.8 76 76 SE 5 7 29.90 1013 10 16 0.00 0.00
7:53 pm 19:53 Mostly Cloudy 70 21.1 64 17.8 82 82 SSE 7 11 29.92 1013 10 16 0.00 0.00
8:53 pm 20:53 Cloudy with Light Rain 70 21.1 65 18.3 84 84 SSE 8 13 29.92 1013 10 16 0.01 0.25
9:53 pm 21:53 Mostly Cloudy with Light Rain 68 20 65 18.3 90 90 ESE 6 9 29.89 1012 10 16 0.03 0.76
10:53 pm 22:53 Cloudy 67 19.4 65 18.3 93 93 Calm 29.90 1013 10 16 0.00 0.00
11:53 pm 23:53 Clear 68 20 64 17.8 87 87 Calm 29.88 1012 10 16 0.00 0.00

Powered by AerisWeather